Lapse_Rate
2.7 2.5 2.6 2.7 2.7 2.8 2.9 3.1 3.1 3.0 2.9 3.0 2.9 3.0 3.0 3.1 3.0 2.8 3.1 3.3 3.4 3.4
2.6 2.6 2.7 2.7 2.7 2.6 2.7 2.9 2.6 2.5 2.5 2.6 2.8 3.0 3.0 2.8 2.9 3.1 3.2 3.4 3.7 4.2
2.7 2.9 2.9 2.8 2.7 2.7 2.7 2.5 2.5 2.6 2.8 3.0 3.1 2.9 2.8 3.0 3.1 3.4 4.0 4.6 5.2 5.6
2.9 2.9 2.8 2.6 2.5 2.5 2.5 2.5 2.7 2.9 3.1 3.1 2.8 2.8 3.0 3.2 3.8 4.5 5.2 5.4 5.5 5.5
2.7 2.7 2.6 2.4 2.4 2.4 2.5 2.8 2.9 3.0 2.9 2.9 2.9 3.1 3.3 4.0 4.8 5.4 5.3 5.5 5.5 5.3
2.7 2.7 2.6 2.5 2.6 2.7 2.9 3.1 3.0 2.9 3.1 3.0 3.2 3.5 4.1 4.8 5.4 5.3 5.5 5.4 5.2 5.2
2.7 2.7 2.6 2.6 2.8 2.9 3.1 3.1 3.1 3.1 3.1 3.2 3.6 4.2 5.0 5.3 5.2 5.2 5.1 5.2 5.2 4.9
2.8 2.8 2.8 2.9 3.1 3.2 3.2 3.2 3.2 3.1 3.2 3.8 4.3 5.0 5.1 5.1 4.9 4.9 5.0 5.1 4.7 4.6
3.0 3.1 3.1 3.2 3.2 3.2 3.3 3.2 3.0 3.3 3.7 4.5 5.1 5.0 4.9 4.8 4.4 4.6 4.4 4.1 4.2 4.2
3.2 3.3 3.4 3.3 3.1 3.3 3.2 3.1 3.5 4.0 4.4 5.1 5.2 4.8 5.0 4.8 4.4 4.3 4.3 4.3 4.1 3.9
3.5 3.6 3.4 3.2 3.4 3.2 3.1 3.5 4.1 4.7 4.9 5.2 5.2 4.9 4.8 4.2 4.1 4.3 4.3 4.1 4.0 3.9
3.6 3.4 3.3 3.4 3.2 3.0 3.5 4.2 4.4 5.1 5.2 5.0 5.2 4.7 4.4 4.1 4.2 4.1 4.1 4.1 4.0 3.8
3.4 3.4 3.5 3.2 3.0 3.4 3.8 4.2 4.9 5.3 5.1 4.5 4.4 4.6 4.7 4.1 3.8 3.7 3.7 4.0 3.7 3.7
3.6 3.6 3.3 3.1 3.5 3.6 4.0 4.6 5.1 5.2 5.0 4.6 4.5 4.4 4.3 4.1 3.9 3.3 3.2 3.3 3.7 4.0
Wind_Speed
6 5 6 8 8 8 8 9 17 18 19 20 20 20 21 14 13 14 14 18 15 13
7 8 8 11 11 8 14 14 18 19 19 20 21 21 20 12 15 15 15 16 16 14
8 8 10 11 12 13 15 18 18 18 19 19 20 21 18 15 16 16 14 13 18 16
8 10 11 11 11 13 17 19 16 18 16 17 17 18 17 18 19 19 18 18 17 19
9 10 11 12 12 17 15 20 19 19 17 17 18 18 18 19 18 19 20 19 19 20
10 10 12 13 13 17 16 16 19 17 17 18 19 18 18 19 19 19 18 19 20 20
11 12 12 13 14 15 18 17 17 17 18 18 19 19 19 19 19 19 19 21 21 21
11 12 13 14 15 15 16 15 16 18 17 18 17 14 17 18 18 20 21 21 21 20
12 12 13 14 15 15 16 16 16 17 18 18 13 25 28 25 17 18 18 19 20 20
12 13 14 14 15 15 16 16 16 17 18 19 19 27 29 30 17 18 19 21 20 18
12 13 14 15 15 16 14 16 15 16 19 19 17 29 30 31 20 18 21 21 21 21
12 14 14 15 15 15 14 16 14 16 18 18 19 29 31 28 18 18 21 19 18 21
13 13 14 14 15 14 14 15 13 17 18 22 19 28 31 27 14 17 14 19 17 27
12 13 13 14 14 14 14 15 15 17 16 17 18 19 31 33 16 14 14 14 13 13
Wind_Direction
306 308 305 307 309 305 303 301 303 301 302 302 301 298 296 292 289 286 283 281 279 278
319 314 314 313 308 302 302 303 302 302 300 299 298 294 291 287 284 283 283 280 278 275
319 320 315 308 305 308 308 307 304 303 302 300 297 294 290 286 283 282 280 278 278 278
323 318 313 309 310 310 307 306 304 303 300 299 298 293 290 286 286 283 281 279 277 275
317 315 313 311 310 309 306 304 301 300 300 298 293 292 291 289 286 285 283 283 282 278
316 315 312 310 308 308 305 304 302 300 300 297 294 297 294 289 287 284 283 279 276 275
317 316 311 308 307 306 306 302 303 302 297 294 296 296 291 289 288 284 279 275 270 266
315 312 310 307 307 305 305 303 301 298 298 299 297 292 292 290 284 280 277 273 270 263
315 310 308 309 309 309 307 304 301 301 303 300 295 294 297 297 288 289 291 288 281 278
311 309 310 311 311 312 308 305 306 308 305 302 299 298 301 304 300 292 287 285 284 281
313 313 313 316 314 310 310 309 313 310 304 301 300 302 307 307 300 292 286 282 278 281
318 314 319 315 311 311 313 314 311 305 303 299 302 306 311 307 302 293 289 289 284 285
314 318 313 308 309 313 314 305 307 306 303 302 300 304 307 313 307 299 305 296 294 298
321 316 308 311 313 314 305 308 302 304 304 305 301 310 313 317 314 312 309 310 306 301